Simultaneous Nadir Overpasses (SNOs) Predictions

Prediction of SNOs between GOES-17 and METOP-C Satellite Orbit:

Table of predicted SNOs for the next 14.0 days since TLE Epoch: 8/6/2022
Index Date Time (GOES-17) GOES-17 Lat,Lon METOP-C Lat,Lon Distance(km) Time Diff (sec)
1 08/06/2022 06:37:48 0.01,-137.31 0.20,-136.49 93.46 80
2 08/07/2022 18:54:00 -0.02,-137.31 0.81,-141.06 427.56 80
3 08/08/2022 18:35:59 -0.01,-137.30 -0.27,-136.06 140.91 80
4 08/10/2022 06:52:19 0.02,-137.28 -0.73,-140.66 384.34 80
5 08/11/2022 06:34:18 0.02,-137.27 0.35,-135.65 183.64 80
6 08/12/2022 18:50:30 -0.03,-137.26 0.65,-140.23 338.59 80
7 08/13/2022 18:32:31 -0.03,-137.25 -0.49,-135.24 229.42 80
8 08/15/2022 06:48:49 0.03,-137.23 -0.57,-139.82 296.01 80
9 08/16/2022 06:30:50 0.03,-137.22 0.57,-134.83 271.88 80
10 08/17/2022 18:47:01 -0.03,-137.20 0.47,-139.39 250.55 80
11 08/18/2022 18:29:02 -0.03,-137.18 -0.66,-134.40 317.06 80
